Showing default

QIANFAN-24, 61557

Orbit data source: Space-Track

QIANFAN-24, 61557 is a Chinese payload satellite in LEO that was launched on Tue, 15 Oct 2024 UTC via a CHANG ZHENG 6A launch vehicle from the Taiyaun Space Center, China (TSC). Payload-class satellites include a variety of spacecraft equipped with specific instruments for various scientific and technological missions. These include communications satellites like Starlink; space stations such as the ISS; scientific satellites like the Hubble; Earth observation satellites from companies like Planet Labs, Umbra, and HawkEye 360; GPS; miniature CubeSats for education and research; and military/defense satellites.

Loading next visibility...
Identifier
61557, 2024-185F
Orbit
LEO
Country
Flag of CNCN / PRC
Related business
Manufacturer
GESIH/SECM
Mission
Partially operational Commercial Communications
Bus & Motor
QIANFAN, Unknown motor
Mass
267 kg wet, ~267 kg dry
Launch date (UTC)
2024-10-15 (11 months ago)
Launch vehicle
CHANG ZHENG 6A
Launch site
Taiyaun Space Center, China (TSC)
Object type
Payload
Rocket body
Debris
Shape & HBR
Box + 1 Pan, 5.0 m
Radar Cross Section
13.200 m², Large (>1 m²)

Expand to show TLE details & history
Last TLE update: 12 hours ago

TLE from 12 hours ago
0 QIANFAN-24
1 61557U 24185F   25243.22452159  .00000896  00000-0  38714-3 0  9999
2 61557  88.9739  89.2504 0007446 280.0961  79.9391 14.23594909 55290
Epoch: 2025-08-31T05:23Z
TLE epoch observation values (Epoch: 2025-08-31T05:23:18.665Z)
Latitude
-0°
Longitude
28.7751°
Altitude
815.347 km
Speed
7.446 km/s
True Right ascension
05h 57m 00s
True Declination
0° 00' 00"
Sunlit
Object was in daylight at epoch
Visualization orbit readout
Latitude
Unknown
Longitude
Unknown
Altitude
Unknown
Speed
Unknown
Apparent Right ascension
Unknown
Apparent Declination
Unknown
Sunlit
N/A
Visualization observer readout
Local Sidereal Time
08:45:02
Azimuth
Unknown
Elevation
Unknown
Doppler factor
Unknown
Orbital elements
Apogee altitude
815.519 km
Perigee altitude
804.814 km
Semi-major axis
7,188.304 km
Eccentricity
0.00074
Inclination
88.9739°
RAAN
89.2504°
Arg. of periapsis
280.0961°
True anomaly
80.02313°
Mean anomaly
79.9391°
Eccentric anomaly
79.98111°
Mean motion
3.56126 °/min
Orbital period
101.09 mins
BSTAR
0.00038714
Loading maneuver chart data...
Computing Atmospheric mass density...
Loading historical data...
Loading historical data...
Loading historical data...
Loading historical data...
Loading historical data...
Loading historical data...
Loading historical data...

Documentation

Showing up to 5 results
|